TimeBST,TemperatureF,Dew PointF,Humidity,Sea Level PressureIn,VisibilityMPH,Wind Direction,Wind SpeedMPH,Gust SpeedMPH,PrecipitationIn,Events,Conditions,WindDirDegrees,DateUTC
12:20 AM,50.0,42.8,76,29.98,-9999.0,South,8.1,-,N/A,,Clear,190,2013-04-15 23:20:00
12:50 AM,49,44,76,29.99,13,South,9.2,,,,Partly Cloudy,170,2013-04-15 23:50:00
12:50 AM,48.2,42.8,82,29.98,-9999.0,South,9.2,-,N/A,,Clear,180,2013-04-15 23:50:00
1:20 AM,50.0,42.8,76,29.98,-9999.0,South,10.4,-,N/A,,Clear,180,2013-04-16 00:20:00
1:50 AM,50.0,42.8,76,29.98,-9999.0,South,9.2,-,N/A,,Clear,180,2013-04-16 00:50:00
2:20 AM,48.2,42.8,82,29.95,-9999.0,South,10.4,-,N/A,,Clear,180,2013-04-16 01:20:00
2:50 AM,50.0,42.8,76,29.95,6.2,SSW,12.7,-,N/A,,Unknown,200,2013-04-16 01:50:00
3:20 AM,50.0,42.8,76,29.92,6.2,SSW,9.2,-,N/A,,Unknown,200,2013-04-16 02:20:00
3:50 AM,50,44,73,29.94,14,South,10.4,,,,Scattered Clouds,190,2013-04-16 02:50:00
3:50 AM,50.0,42.8,76,29.92,6.2,SSW,10.4,-,N/A,,Unknown,200,2013-04-16 02:50:00
4:20 AM,50.0,44.6,82,29.92,-9999.0,SSW,9.2,-,N/A,,Clear,200,2013-04-16 03:20:00
4:50 AM,51.8,44.6,76,29.92,6.2,SSW,12.7,-,N/A,,Scattered Clouds,210,2013-04-16 03:50:00
5:20 AM,51.8,46.4,82,29.92,6.2,SSW,15.0,-,N/A,,Mostly Cloudy,210,2013-04-16 04:20:00
5:50 AM,50.0,46.4,87,29.92,5.6,SSW,13.8,25.3,N/A,,Mostly Cloudy,210,2013-04-16 04:50:00
6:20 AM,50.0,46.4,87,29.92,3.7,SSW,13.8,-,N/A,,Overcast,200,2013-04-16 05:20:00
6:50 AM,51,49,88,29.92,6,SSW,16.1,,,Rain,Rain,210,2013-04-16 05:50:00
6:50 AM,50.0,48.2,94,29.92,5.0,SSW,11.5,-,N/A,,Mostly Cloudy,210,2013-04-16 05:50:00
7:20 AM,51.8,48.2,88,29.92,5.6,SW,15.0,-,N/A,,Mostly Cloudy,220,2013-04-16 06:20:00
7:50 AM,51.8,48.2,88,29.92,6.2,SW,16.1,-,N/A,,Mostly Cloudy,220,2013-04-16 06:50:00
8:20 AM,53.6,46.4,77,29.92,6.2,SW,18.4,-,N/A,,Partly Cloudy,230,2013-04-16 07:20:00
8:50 AM,53.6,46.4,77,29.95,6.2,SW,17.3,-,N/A,,Partly Cloudy,220,2013-04-16 07:50:00
9:20 AM,55.4,46.4,72,29.95,6.2,SW,19.6,-,N/A,,Scattered Clouds,230,2013-04-16 08:20:00
9:50 AM,55,46,63,29.96,13,SW,20.7,,,,Partly Cloudy,220,2013-04-16 08:50:00
9:50 AM,55.4,46.4,72,29.95,6.2,SW,18.4,-,N/A,,Scattered Clouds,230,2013-04-16 08:50:00
10:20 AM,55.4,46.4,72,29.95,6.2,SW,19.6,-,N/A,,Mostly Cloudy,230,2013-04-16 09:20:00
10:50 AM,57.2,44.6,63,29.95,6.2,WSW,19.6,-,N/A,,Mostly Cloudy,240,2013-04-16 09:50:00
11:20 AM,59.0,44.6,59,29.98,6.2,SW,20.7,-,N/A,,Scattered Clouds,230,2013-04-16 10:20:00
11:50 AM,57.2,44.6,63,29.98,6.2,WSW,19.6,-,N/A,,Scattered Clouds,240,2013-04-16 10:50:00
12:20 PM,59.0,42.8,55,29.98,6.2,WSW,18.4,-,N/A,,Scattered Clouds,240,2013-04-16 11:20:00
12:50 PM,60,44,44,29.98,17,SW,20.7,,,,Partly Cloudy,220,2013-04-16 11:50:00
12:50 PM,59.0,41.0,51,29.98,6.2,SW,21.9,-,N/A,,Scattered Clouds,230,2013-04-16 11:50:00
1:20 PM,59.0,39.2,48,29.98,6.2,WSW,20.7,-,N/A,,Scattered Clouds,240,2013-04-16 12:20:00
1:50 PM,59.0,41.0,51,29.98,6.2,WSW,20.7,-,N/A,,Scattered Clouds,240,2013-04-16 12:50:00
2:20 PM,60.8,39.2,45,29.98,6.2,WSW,19.6,-,N/A,,Mostly Cloudy,240,2013-04-16 13:20:00
2:50 PM,60.8,41.0,48,29.98,6.2,WSW,18.4,-,N/A,,Mostly Cloudy,240,2013-04-16 13:50:00
3:20 PM,60.8,39.2,45,29.98,6.2,WSW,18.4,-,N/A,,Scattered Clouds,240,2013-04-16 14:20:00
3:50 PM,62,42,35,29.99,19,WSW,17.3,,,,Partly Cloudy,250,2013-04-16 14:50:00
3:50 PM,62.6,39.2,42,30.01,6.2,WSW,16.1,-,N/A,,Scattered Clouds,250,2013-04-16 14:50:00
4:20 PM,62.6,37.4,39,30.01,6.2,WSW,17.3,-,N/A,,Partly Cloudy,240,2013-04-16 15:20:00
4:50 PM,60.8,39.2,45,30.01,-9999.0,WSW,17.3,-,N/A,,Clear,240,2013-04-16 15:50:00
5:20 PM,60.8,39.2,45,30.01,6.2,WSW,17.3,-,N/A,,Scattered Clouds,250,2013-04-16 16:20:00
5:50 PM,60.8,41.0,48,30.01,6.2,SW,17.3,-,N/A,,Scattered Clouds,230,2013-04-16 16:50:00
6:20 PM,59.0,42.8,55,30.01,6.2,SW,15.0,-,N/A,,Partly Cloudy,220,2013-04-16 17:20:00
6:50 PM,58,44,48,30.02,17,SSW,17.3,,,,Scattered Clouds,210,2013-04-16 17:50:00
6:50 PM,59.0,42.8,55,30.01,6.2,SW,17.3,-,N/A,,Partly Cloudy,220,2013-04-16 17:50:00
7:20 PM,57.2,42.8,59,30.04,6.2,SW,17.3,-,N/A,,Partly Cloudy,230,2013-04-16 18:20:00
7:50 PM,55.4,42.8,63,30.04,6.2,SW,12.7,-,N/A,,Partly Cloudy,220,2013-04-16 18:50:00
8:20 PM,55.4,44.6,67,30.06,-9999.0,SW,12.7,-,N/A,,Clear,220,2013-04-16 19:20:00
8:50 PM,53.6,44.6,72,30.06,-9999.0,SW,10.4,-,N/A,,Clear,220,2013-04-16 19:50:00
9:20 PM,51.8,44.6,76,30.06,-9999.0,SSW,8.1,-,N/A,,Clear,210,2013-04-16 20:20:00
9:50 PM,51,45,72,30.08,12,South,9.2,,,,,190,2013-04-16 20:50:00
9:50 PM,51.8,44.6,76,30.06,-9999.0,SSW,9.2,-,N/A,,Clear,200,2013-04-16 20:50:00
10:20 PM,50.0,44.6,82,30.09,-9999.0,SSW,9.2,-,N/A,,Clear,200,2013-04-16 21:20:00
10:50 PM,50.0,44.6,82,30.09,-9999.0,SSW,9.2,-,N/A,,Clear,210,2013-04-16 21:50:00
11:20 PM,50.0,44.6,82,30.09,6.2,SSW,9.2,-,N/A,,Mostly Cloudy,200,2013-04-16 22:20:00
11:50 PM,50.0,44.6,82,30.09,6.2,SSW,5.8,-,N/A,,Scattered Clouds,200,2013-04-16 22:50:00